Wetterstats.de || Aktuelle Messwerte || Aktuelle Wetterkarten NEU! || Radar / Satellit NEU! || Wetterarchiv || Langzeitwerte NEU! || Klim. Kenntage || Met. Ereignisse || Agrarwerte || Echtzeitwerte

Monatsübersicht für Juli 2020 Diagramm
 
Wetter Information zur Wetteranzeige
Zeitraffer
Tageslänge (hh:mm)
Höchsttemperatur in °C
Uhrzeit
Tiefsttemperatur in °C
Uhrzeit
Luftfeuchte (max., in %)
Uhrzeit
Luftfeuchte (min., in %)
Uhrzeit
Luftdruck (max., in hPa)
Uhrzeit
Luftdruck (min., in hPa)
Uhrzeit
Luftdruck (Ø, in hPa)
Regenrate (max, mm/h)
Uhrzeit
Niederschlag in mm
Verdunstung in mm
Solar in W/m² (Ø)
Solar in W/m² (max.)
UV-Index (max.)
Sonnenscheindauer (hh:mm)
Windrichtung (Ø)
Windstärke (Ø in km/h)
Windstärke (Ø in bft)
Windböe (max., in km/h)
Uhrzeit
Windböe (max., in bft)
Uhrzeit
Taupunkt (max., in °C)
Uhrzeit
Taupunkt (min., in °C)
Uhrzeit
Windchill (min., in °C)
Uhrzeit
Gewitterindex (max.)
Uhrzeit
Waldbrandindex (max.)
Uhrzeit
Graslandfeuerindex (max.)
Uhrzeit
Staubsturm-Index (max.)
Uhrzeit
01
Zeitraffer
16:49
24.1
19:10 Uhr
17.8
23:30 Uhr

95
23:55 Uhr
54
00:00 Uhr
1008.7
12:30 Uhr

1005.5
20:25 Uhr
1007.3
7,200
22:20 Uhr
5,000
2.515
187
633
09:15 Uhr
4.0
12:45 Uhr

02:38:00
6,4
1
30,6
09:05 Uhr

5
18.4
20:35 Uhr
9.2
00:00 Uhr
15.6
06:25 Uhr
11
22:20 Uhr
5.5
00:00 Uhr
5.9
00:00 Uhr
2.2
19:20 Uhr
02
Zeitraffer
16:48
25.1
17:10 Uhr
15.7
03:35 Uhr

96
03:45 Uhr
49
18:45 Uhr
1011.3
22:50 Uhr

1007.2
00:05 Uhr
1009.7
0,000
00:00 Uhr
0,000
3.632
310
1107
13:10 Uhr
7.0
14:15 Uhr

06:12:00
5,0
1
25,7
11:00 Uhr

4
17.1
00:20 Uhr
12.5
19:55 Uhr
15.7
03:35 Uhr
11
00:00 Uhr
1.8
18:50 Uhr
5.6
20:05 Uhr
0.0
00:00 Uhr
03
Zeitraffer
16:46
24.1
17:30 Uhr
16.1
05:35 Uhr

85
05:40 Uhr
43
17:20 Uhr
1016.9
22:50 Uhr

1011.1
00:00 Uhr
1014.8
0,000
00:00 Uhr
0,000
4.369
356
1102
12:30 Uhr
7.4
12:25 Uhr

06:36:00
7,6
2
30,6
14:45 Uhr

5
15.0
00:05 Uhr
10.4
17:25 Uhr
13.4
06:55 Uhr
9
00:00 Uhr
3.7
17:40 Uhr
5.9
00:00 Uhr
4.2
14:50 Uhr
04
Zeitraffer
16:45
25.2
16:05 Uhr
13.1
04:50 Uhr

86
04:50 Uhr
42
17:30 Uhr
1017.0
01:15 Uhr

1012.7
19:25 Uhr
1014.8
0,000
00:00 Uhr
0,000
4.877
348
1074
11:30 Uhr
7.5
14:05 Uhr

08:40:00
7,7
2
35,4
14:25 Uhr

5
13.6
09:10 Uhr
10.6
05:00 Uhr
13.1
04:50 Uhr
7
22:20 Uhr
3.8
16:05 Uhr
5.9
00:00 Uhr
5.1
14:31 Uhr
05
Zeitraffer
16:43
27.9
15:20 Uhr
19.4
23:35 Uhr

88
20:15 Uhr
51
15:30 Uhr
1013.1
00:00 Uhr

1008.3
18:00 Uhr
1010.2
2,400
20:10 Uhr
0,400
3.810
248
1088
12:50 Uhr
8.9
13:45 Uhr

02:43:00
9,9
2
43,5
12:20 Uhr

6
18.4
18:55 Uhr
13.6
00:00 Uhr
18.0
20:10 Uhr
12
22:20 Uhr
5.6
15:20 Uhr
5.9
00:00 Uhr
5.5
12:00 Uhr
06
Zeitraffer
16:42
21.8
13:25 Uhr
13.8
23:45 Uhr

91
03:25 Uhr
37
13:45 Uhr
1015.9
23:55 Uhr

1007.8
04:05 Uhr
1010.8
12,000
16:55 Uhr
3,400
4.521
336
998
13:35 Uhr
6.8
13:35 Uhr

07:53:00
11,4
2
49,9
16:55 Uhr

6
17.3
00:10 Uhr
6.5
12:55 Uhr
10.4
23:35 Uhr
12
00:25 Uhr
5.6
13:35 Uhr
5.9
00:00 Uhr
5.9
14:40 Uhr
07
Zeitraffer
16:40
20.6
18:25 Uhr
11.6
04:45 Uhr

87
04:50 Uhr
38
18:05 Uhr
1019.0
12:00 Uhr

1015.2
21:10 Uhr
1017.5
0,000
00:00 Uhr
0,000
3.734
284
1081
13:10 Uhr
7.3
13:30 Uhr

05:05:00
9,0
2
43,5
21:40 Uhr

6
10.8
23:25 Uhr
5.2
19:00 Uhr
8.8
01:10 Uhr
3
23:10 Uhr
3.3
18:30 Uhr
5.9
10:15 Uhr
2.9
21:45 Uhr
08
Zeitraffer
16:38
18.2
18:35 Uhr
12.4
05:30 Uhr

88
06:30 Uhr
60
18:40 Uhr
1016.9
23:50 Uhr

1015.0
06:25 Uhr
1015.6
0,000
00:00 Uhr
0,000
2.159
183
883
16:10 Uhr
4.9
16:05 Uhr

00:54:00
6,1
1
25,7
00:20 Uhr

4
12.3
23:40 Uhr
8.8
10:45 Uhr
10.1
00:20 Uhr
5
23:40 Uhr
3.8
18:55 Uhr
5.9
00:00 Uhr
3.6
10:45 Uhr
09
Zeitraffer
16:37
19.9
11:40 Uhr
13.4
03:00 Uhr

94
14:45 Uhr
65
11:45 Uhr
1016.8
00:00 Uhr

1010.3
19:00 Uhr
1013.8
14,400
18:05 Uhr
8,400
1.524
145
558
11:35 Uhr
4.7
11:35 Uhr

00:49:00
4,2
1
24,1
12:25 Uhr

4
18.2
20:25 Uhr
11.8
03:00 Uhr
13.4
03:00 Uhr
10
21:30 Uhr
3.8
12:00 Uhr
5.9
00:00 Uhr
3.5
10:50 Uhr
10
Zeitraffer
16:35
27.1
13:15 Uhr
13.7
23:50 Uhr

97
05:55 Uhr
54
15:30 Uhr
1016.8
23:30 Uhr

1006.0
13:55 Uhr
1010.1
7,200
08:45 Uhr
3,000
2.743
208
738
12:05 Uhr
5.2
12:05 Uhr

02:12:00
7,4
2
53,1
19:15 Uhr

7
20.7
13:15 Uhr
10.7
23:35 Uhr
10.6
19:55 Uhr
12
13:00 Uhr
0.0
00:00 Uhr
1.3
16:55 Uhr
0.0
00:00 Uhr
11
Zeitraffer
16:33
20.6
18:10 Uhr
10.5
05:35 Uhr

93
04:30 Uhr
43
15:15 Uhr
1024.6
23:50 Uhr

1016.9
00:05 Uhr
1021.7
0,000
00:00 Uhr
0,000
3.708
307
1096
13:20 Uhr
7.0
13:20 Uhr

06:31:00
5,9
1
29,0
15:30 Uhr

4
10.6
00:10 Uhr
6.7
15:15 Uhr
9.7
07:15 Uhr
3
00:00 Uhr
0.0
00:00 Uhr
3.2
15:50 Uhr
0.0
00:00 Uhr
12
Zeitraffer
16:31
22.0
16:30 Uhr
10.1
04:25 Uhr

91
04:30 Uhr
35
16:15 Uhr
1027.5
12:30 Uhr

1024.5
00:00 Uhr
1026.3
0,000
00:00 Uhr
0,000
4.521
387
1028
12:30 Uhr
6.6
12:25 Uhr

09:42:00
5,9
1
35,4
13:25 Uhr

5
10.4
07:55 Uhr
4.9
16:15 Uhr
10.1
04:25 Uhr
2
00:00 Uhr
0.4
16:35 Uhr
4.8
16:55 Uhr
0.8
14:35 Uhr
13
Zeitraffer
16:29
27.3
18:45 Uhr
10.3
05:10 Uhr

89
05:00 Uhr
34
18:45 Uhr
1026.7
01:15 Uhr

1019.4
23:40 Uhr
1023.8
0,000
00:00 Uhr
0,000
4.623
412
979
12:15 Uhr
7.0
13:00 Uhr

11:50:00
2,8
1
25,7
14:20 Uhr

4
11.3
21:50 Uhr
8.3
15:05 Uhr
10.3
05:10 Uhr
4
22:10 Uhr
3.4
17:15 Uhr
5.9
15:25 Uhr
2.6
16:10 Uhr
14
Zeitraffer
16:26
31.3
16:00 Uhr
12.8
05:30 Uhr

83
04:45 Uhr
22
16:00 Uhr
1019.4
00:00 Uhr

1010.7
23:00 Uhr
1014.8
0,000
00:00 Uhr
0,000
5.105
395
925
13:45 Uhr
6.8
13:05 Uhr

10:29:00
3,4
1
27,4
12:35 Uhr

4
13.1
23:55 Uhr
5.8
15:50 Uhr
12.8
05:30 Uhr
6
23:50 Uhr
5.9
12:35 Uhr
5.9
00:00 Uhr
3.3
12:35 Uhr
15
Zeitraffer
16:24
21.2
00:00 Uhr
15.2
23:50 Uhr

95
23:35 Uhr
59
00:50 Uhr
1013.9
23:50 Uhr

1011.2
05:50 Uhr
1012.4
2,400
12:35 Uhr
3,800
1.422
111
321
08:45 Uhr
1.8
11:55 Uhr

00:29:00
4,7
1
29,0
02:05 Uhr

4
15.4
20:10 Uhr
11.4
01:00 Uhr
14.3
15:25 Uhr
9
22:10 Uhr
5.2
00:00 Uhr
5.9
00:00 Uhr
3.8
00:35 Uhr


 
Wetter Information zur Wetteranzeige
Zeitraffer
Tageslänge (hh:mm)
Höchsttemperatur in °C
Uhrzeit
Tiefsttemperatur in °C
Uhrzeit
Luftfeuchte (max., in %)
Uhrzeit
Luftfeuchte (min., in %)
Uhrzeit
Luftdruck (max., in hPa)
Uhrzeit
Luftdruck (min., in hPa)
Uhrzeit
Luftdruck (Ø, in hPa)
Regenrate (max, mm/h)
Uhrzeit
Niederschlag in mm
Verdunstung in mm
Solar in W/m² (Ø)
Solar in W/m² (max.)
UV-Index (max.)
Sonnenscheindauer (hh:mm)
Windrichtung (Ø)
Windstärke (Ø in km/h)
Windstärke (Ø in bft)
Windböe (max., in km/h)
Uhrzeit
Windböe (max., in bft)
Uhrzeit
Taupunkt (max., in °C)
Uhrzeit
Taupunkt (min., in °C)
Uhrzeit
Windchill (min., in °C)
Uhrzeit
Gewitterindex (max.)
Uhrzeit
Waldbrandindex (max.)
Uhrzeit
Graslandfeuerindex (max.)
Uhrzeit
Staubsturm-Index (max.)
Uhrzeit
16
Zeitraffer
16:22
22.2
17:05 Uhr
14.1
02:15 Uhr

97
03:05 Uhr
42
17:15 Uhr
1017.4
23:15 Uhr

1013.8
00:20 Uhr
1015.3
2,400
06:45 Uhr
0,400
3.048
309
1069
13:30 Uhr
6.6
12:45 Uhr

04:29:00
4,9
1
30,6
11:25 Uhr

5
14.4
00:00 Uhr
8.1
17:15 Uhr
13.7
11:45 Uhr
8
00:00 Uhr
1.8
17:45 Uhr
4.9
17:05 Uhr
0.0
00:00 Uhr
17
Zeitraffer
16:20
21.1
14:35 Uhr
11.8
05:30 Uhr

95
23:40 Uhr
64
10:55 Uhr
1020.0
23:45 Uhr

1017.2
00:25 Uhr
1018.5
12,000
16:55 Uhr
2,400
2.210
196
990
13:50 Uhr
6.6
13:45 Uhr

03:19:00
4,1
1
24,1
11:50 Uhr

4
17.4
19:55 Uhr
10.2
05:30 Uhr
11.8
05:30 Uhr
10
22:05 Uhr
2.5
11:25 Uhr
5.5
16:05 Uhr
2.1
11:40 Uhr
18
Zeitraffer
16:17
29.8
17:55 Uhr
12.4
05:25 Uhr

97
03:20 Uhr
38
16:00 Uhr
1020.9
09:35 Uhr

1017.8
20:10 Uhr
1019.6
0,000
00:00 Uhr
0,000
4.064
355
990
14:10 Uhr
7.2
13:20 Uhr

09:00:00
1,8
0
19,3
12:45 Uhr

3
17.4
08:20 Uhr
11.9
05:50 Uhr
12.4
05:25 Uhr
10
22:05 Uhr
1.5
16:40 Uhr
5.0
16:40 Uhr
0.0
00:00 Uhr
19
Zeitraffer
16:14
34.2
16:35 Uhr
15.8
04:45 Uhr

90
04:40 Uhr
33
16:35 Uhr
1018.9
00:25 Uhr

1013.6
17:50 Uhr
1016.1
0,000
00:00 Uhr
0,000
4.826
384
916
13:40 Uhr
6.6
13:25 Uhr

10:02:00
3,2
1
22,5
18:05 Uhr

4
18.5
08:30 Uhr
13.6
15:10 Uhr
15.8
04:45 Uhr
11
22:05 Uhr
3.9
16:30 Uhr
5.9
10:05 Uhr
3.4
18:10 Uhr
20
Zeitraffer
16:11
27.3
12:25 Uhr
15.7
23:55 Uhr

91
05:05 Uhr
44
12:25 Uhr
1019.7
23:55 Uhr

1013.1
07:45 Uhr
1015.9
0,000
00:00 Uhr
0,000
3.962
315
918
13:05 Uhr
6.4
13:15 Uhr

07:39:00
5,6
1
37,0
15:35 Uhr

5
17.9
09:00 Uhr
11.9
20:55 Uhr
15.7
23:55 Uhr
11
00:00 Uhr
3.9
12:30 Uhr
5.9
00:00 Uhr
5.2
15:35 Uhr
21
Zeitraffer
16:09
22.9
18:00 Uhr
13.4
05:35 Uhr

88
02:10 Uhr
34
17:10 Uhr
1022.5
23:50 Uhr

1019.7
00:00 Uhr
1021.2
0,000
00:00 Uhr
0,000
5.004
414
949
14:00 Uhr
7.1
13:05 Uhr

10:49:00
6,0
1
27,4
18:35 Uhr

4
12.5
00:00 Uhr
5.7
17:20 Uhr
13.4
05:35 Uhr
5
00:00 Uhr
5.4
18:05 Uhr
5.9
00:00 Uhr
3.9
13:00 Uhr
22
Zeitraffer
16:06
23.1
14:55 Uhr
11.3
05:40 Uhr

83
05:40 Uhr
37
14:55 Uhr
1023.2
06:55 Uhr

1019.1
20:55 Uhr
1021.7
0,000
00:00 Uhr
0,000
4.369
370
1004
13:40 Uhr
7.1
13:10 Uhr

08:49:00
5,9
1
29,0
13:10 Uhr

4
10.1
08:40 Uhr
6.9
15:00 Uhr
11.3
05:40 Uhr
2
00:00 Uhr
5.2
15:05 Uhr
5.9
00:00 Uhr
4.0
11:30 Uhr
23
Zeitraffer
16:03
24.4
18:05 Uhr
13.9
03:20 Uhr

92
04:35 Uhr
35
18:40 Uhr
1019.6
02:20 Uhr

1014.1
23:55 Uhr
1017.3
4,800
02:30 Uhr
2,200
3.759
339
1015
12:15 Uhr
7.2
13:20 Uhr

07:26:00
3,4
1
22,5
16:40 Uhr

4
13.1
09:05 Uhr
6.8
18:50 Uhr
13.9
03:20 Uhr
5
03:35 Uhr
4.5
18:40 Uhr
5.9
00:00 Uhr
3.0
14:45 Uhr
24
Zeitraffer
16:01
28.3
16:25 Uhr
11.4
05:35 Uhr

84
05:35 Uhr
29
16:40 Uhr
1014.0
00:00 Uhr

1008.2
16:35 Uhr
1010.7
0,000
00:00 Uhr
0,000
5.309
362
1044
13:35 Uhr
7.4
13:40 Uhr

08:58:00
6,7
1
43,5
18:00 Uhr

6
13.3
20:35 Uhr
8.3
16:40 Uhr
11.4
05:35 Uhr
7
22:00 Uhr
3.6
17:00 Uhr
5.9
11:00 Uhr
4.9
18:05 Uhr
25
Zeitraffer
15:57
28.6
17:55 Uhr
14.1
05:15 Uhr

89
05:45 Uhr
43
18:00 Uhr
1013.7
11:10 Uhr

1011.1
00:00 Uhr
1012.3
0,000
00:00 Uhr
0,000
3.505
297
974
13:30 Uhr
6.9
13:25 Uhr

06:46:00
2,5
1
19,3
17:35 Uhr

3
16.0
13:35 Uhr
12.0
04:35 Uhr
14.1
05:15 Uhr
8
21:55 Uhr
4.1
18:00 Uhr
5.9
00:00 Uhr
2.6
12:30 Uhr
26
Zeitraffer
15:55
26.1
18:40 Uhr
15.8
23:45 Uhr

94
15:10 Uhr
57
18:40 Uhr
1015.8
23:55 Uhr

1008.2
06:35 Uhr
1011.1
74,400
14:45 Uhr
15,000
2.134
201
649
16:05 Uhr
5.1
13:40 Uhr

04:16:00
3,5
1
29,0
14:40 Uhr

4
17.1
16:05 Uhr
13.7
03:05 Uhr
15.8
23:45 Uhr
9
21:51 Uhr
3.6
00:05 Uhr
5.9
00:00 Uhr
3.8
13:30 Uhr
27
Zeitraffer
15:51
27.9
15:50 Uhr
13.4
05:10 Uhr

97
06:20 Uhr
41
15:50 Uhr
1018.5
10:15 Uhr

1011.6
23:50 Uhr
1016.2
2,400
18:35 Uhr
0,400
3.302
285
788
11:25 Uhr
6.3
14:25 Uhr

07:39:00
3,0
1
22,5
11:35 Uhr

4
17.6
19:00 Uhr
12.2
16:05 Uhr
13.4
05:10 Uhr
11
21:50 Uhr
0.0
00:00 Uhr
0.0
00:00 Uhr
0.0
00:00 Uhr
28
Zeitraffer
15:48
27.4
12:35 Uhr
18.8
02:45 Uhr

74
02:30 Uhr
37
17:40 Uhr
1013.5
23:50 Uhr

1007.0
06:55 Uhr
1009.6
0,000
00:00 Uhr
0,000
4.674
318
993
12:10 Uhr
7.2
12:20 Uhr

06:51:00
8,1
2
38,6
15:30 Uhr

5
16.0
11:00 Uhr
10.7
17:40 Uhr
18.8
02:45 Uhr
9
00:00 Uhr
0.0
00:00 Uhr
3.8
17:30 Uhr
0.0
00:00 Uhr
29
Zeitraffer
15:45
23.2
16:35 Uhr
14.2
05:00 Uhr

80
04:45 Uhr
37
16:30 Uhr
1019.4
23:30 Uhr

1013.4
00:00 Uhr
1017.1
0,000
00:00 Uhr
0,000
4.546
304
1020
12:15 Uhr
6.3
12:55 Uhr

05:51:00
8,2
2
40,2
13:50 Uhr

5
12.7
00:00 Uhr
7.5
16:30 Uhr
14.2
05:00 Uhr
6
00:00 Uhr
0.0
00:00 Uhr
3.9
17:05 Uhr
0.0
00:00 Uhr
30
Zeitraffer
15:42
24.3
17:30 Uhr
10.9
05:20 Uhr

84
05:15 Uhr
36
14:45 Uhr
1021.8
11:35 Uhr

1019.2
00:05 Uhr
1020.4
0,000
00:00 Uhr
0,000
4.801
410
828
14:40 Uhr
6.8
13:05 Uhr

11:14:00
5,3
1
38,6
11:10 Uhr

5
10.6
23:50 Uhr
6.7
15:05 Uhr
10.9
05:20 Uhr
3
23:50 Uhr
3.9
16:55 Uhr
5.9
17:40 Uhr
3.6
15:00 Uhr
31
Zeitraffer
15:39
29.0
17:30 Uhr
12.4
06:10 Uhr

85
05:45 Uhr
32
16:00 Uhr
1019.9
00:30 Uhr

1017.7
18:15 Uhr
1019.0
0,000
00:00 Uhr
0,000
5.055
432
785
13:10 Uhr
7.0
13:20 Uhr

12:40:00
4,2
1
22,5
10:15 Uhr

4
12.7
23:45 Uhr
9.2
16:05 Uhr
12.4
06:10 Uhr
6
23:15 Uhr
4.2
16:20 Uhr
5.9
14:00 Uhr
3.3
16:10 Uhr
Stationsstandorte || Wetterblog || Wissenswertes || Downloads || Seitenhistorie || Partner || Impressum / Datenschutz